Simultaneous Nadir Overpasses (SNOs) Predictions

Prediction of SNOs between LANDSAT-8 and METOP-B Satellite Orbit:

Table of predicted SNOs for the next 14.0 days since TLE Epoch: 11/26/2022
Index Date (LANDSAT-8) Time (LANDSAT-8) Lat,Lon (LANDSAT-8) SZA (LANDSAT-8 ) Date (METOP-B) Time (METOP-B) Lat,Lon (METOP-B) SZA (METOP-B ) Distance(km) Time Diff (sec)
1 11/28/2022 09:23:14 -81.11,-101.04 75.34 11/28/2022 09:23:11 -81.12,-101.06 75.34 0.53 3
2 11/28/2022 10:12:39 81.14, 67.08 104.74 11/28/2022 10:13:50 81.14, 66.91 104.75 3.00 71
3 12/01/2022 04:08:03 81.10, 157.60 105.07 12/01/2022 04:06:56 81.10, 157.49 105.03 2.05 67
4 12/01/2022 04:57:29 -81.12, -34.45 74.88 12/01/2022 04:57:35 -81.13, -34.44 74.88 0.29 6
5 12/03/2022 23:42:17 81.10,-135.95 105.46 12/03/2022 23:41:19 81.11,-135.95 105.43 0.07 58
6 12/04/2022 00:31:43 -81.13, 32.02 74.50 12/04/2022 00:31:58 -81.13, 32.14 74.47 1.98 15
7 12/06/2022 19:16:31 81.12, -69.24 105.82 12/06/2022 19:15:42 81.12, -69.05 105.82 3.25 49
8 12/06/2022 20:05:58 -81.12, 98.39 74.18 12/06/2022 20:06:23 -81.12, 98.29 74.18 1.74 25
9 12/09/2022 14:50:46 81.11, -3.01 106.05 12/09/2022 14:50:07 81.11, -2.95 106.04 1.05 39



Historial Predications of SNOs between LANDSAT-8 and METOP-B
